Tracking 25620 objects as of 18-May-2022
HD Live streaming from Space Station
objects crossing your sky now

STARLINK-1396

Track STARLINK-1396 now!
10-day predictions
STARLINK-1396 is classified as:


NORAD ID: 45681
Int'l Code: 2020-035AA
Perigee: 553.2 km
Apogee: 555.6 km
Inclination: 53.1 °
Period: 95.6 minutes
Semi major axis: 6925 km
RCS: Unknown
Launch date: June 4, 2020
Source: United States (US)
Launch site: AIR FORCE EASTERN TEST RANGE (AFETR)
aabbcc
Your satellite tracking list
Your tracking list is empty




NASA's NSSDC Master Catalog

Two Line Element Set (TLE):
1 45681U 20035AA  22138.41859839  .00001980  00000-0  15182-3 0  9995
2 45681  53.0561 182.2782 0001730  57.2743 302.8413 15.06392643109173
Source of the keplerian elements: AFSPC